• In Uzbekistan
  • List of Countries
  • For 7 days
  • Water Temperature
  • Satellite Maps
  • Weather Map
  • Weather Widgets
  • user-avatar
    Login

    Hourly Weather Campos do Jordao

    Today, 18 October, Wednesday

    Time Temperature Precipitation Wind Pressure Humidity
    00:00 +13°C° 0 mm 1 mps 631 mmHg 86%
    01:00 +12°C° 0 mm 1 mps 631 mmHg 88%
    02:00 +12°C° 0 mm 1 mps 630 mmHg 89%
    03:00 +12°C° 0 mm 1 mps 630 mmHg 90%
    04:00 +12°C° 0 mm 1 mps 630 mmHg 90%
    05:00 +12°C° 0 mm 1 mps 630 mmHg 90%
    06:00 +12°C° 0 mm 1 mps 630 mmHg 90%
    07:00 +14°C° 0 mm 1 mps 632 mmHg 79%
    08:00 +17°C° 0 mm 2 mps 633 mmHg 68%
    09:00 +20°C° 0 mm 2 mps 634 mmHg 57%
    10:00 +21°C° 0 mm 2 mps 634 mmHg 51%
    11:00 +24°C° 0 mm 3 mps 634 mmHg 45%
    12:00 +26°C° 0 mm 3 mps 634 mmHg 39%
    13:00 +26°C° 0 mm 2 mps 634 mmHg 38%
    14:00 +26°C° 0 mm 2 mps 633 mmHg 36%
    15:00 +26°C° 0 mm 2 mps 633 mmHg 35%
    16:00 +24°C° 0 mm 2 mps 632 mmHg 42%
    17:00 +22°C° 0 mm 1 mps 631 mmHg 49%
    18:00 +20°C° 0 mm 1 mps 630 mmHg 56%
    19:00 +19°C° 0 mm 1 mps 630 mmHg 59%
    20:00 +16°C° 0 mm 1 mps 630 mmHg 61%
    21:00 +15°C° 0 mm 1 mps 630 mmHg 64%
    22:00 +14°C° 0 mm 1 mps 630 mmHg 65%
    23:00 +14°C° 0 mm 1 mps 629 mmHg 66%

    Tomorrow, 19 October, Thursday

    Time Temperature Precipitation Wind Pressure Humidity
    00:00 +13°C° 0 mm 1 mps 629 mmHg 67%
    01:00 +13°C° 0 mm 1 mps 629 mmHg 68%
    02:00 +13°C° 0 mm 2 mps 628 mmHg 69%
    03:00 +12°C° 0 mm 2 mps 628 mmHg 70%
    04:00 +12°C° 0 mm 2 mps 628 mmHg 72%
    05:00 +12°C° 0 mm 2 mps 628 mmHg 73%
    06:00 +12°C° 0 mm 2 mps 629 mmHg 74%
    07:00 +15°C° 0 mm 2 mps 630 mmHg 65%
    08:00 +18°C° 0 mm 2 mps 631 mmHg 56%
    09:00 +20°C° 0 mm 3 mps 632 mmHg 47%
    10:00 +22°C° 0 mm 3 mps 632 mmHg 42%
    11:00 +25°C° 0 mm 3 mps 632 mmHg 38%
    12:00 +26°C° 0 mm 3 mps 633 mmHg 33%
    13:00 +26°C° 0 mm 3 mps 632 mmHg 33%
    14:00 +27°C° 0 mm 2 mps 632 mmHg 32%
    15:00 +27°C° 0 mm 2 mps 631 mmHg 32%
    16:00 +25°C° 0 mm 2 mps 631 mmHg 39%
    17:00 +23°C° 0 mm 1 mps 630 mmHg 45%
    18:00 +20°C° 0 mm 1 mps 629 mmHg 52%
    19:00 +19°C° 0 mm 1 mps 629 mmHg 54%
    20:00 +18°C° 0 mm 1 mps 629 mmHg 57%
    21:00 +16°C° 0 mm 1 mps 629 mmHg 60%
    22:00 +16°C° 0 mm 1 mps 629 mmHg 60%
    23:00 +15°C° 0 mm 1 mps 629 mmHg 60%

    Day after tomorrow, 20 October, Friday

    Time Temperature Precipitation Wind Pressure Humidity
    00:00 +15°C° 0 mm 1 mps 629 mmHg 60%
    01:00 +15°C° 0 mm 1 mps 628 mmHg 60%
    02:00 +15°C° 0 mm 1 mps 628 mmHg 60%
    03:00 +15°C° 0 mm 1 mps 628 mmHg 60%
    04:00 +14°C° 0 mm 1 mps 628 mmHg 61%
    05:00 +14°C° 0 mm 1 mps 628 mmHg 62%
    06:00 +14°C° 0 mm 1 mps 628 mmHg 64%
    07:00 +18°C° 0 mm 1 mps 630 mmHg 55%
    08:00 +21°C° 0 mm 1 mps 631 mmHg 47%
    09:00 +24°C° 0 mm 2 mps 633 mmHg 39%
    10:00 +25°C° 0 mm 2 mps 633 mmHg 36%
    11:00 +27°C° 0 mm 1 mps 633 mmHg 33%
    12:00 +28°C° 0 mm 1 mps 634 mmHg 31%
    13:00 +27°C° 0 mm 1 mps 633 mmHg 34%
    14:00 +26°C° 0 mm 1 mps 632 mmHg 37%
    15:00 +25°C° 0 mm 1 mps 631 mmHg 39%
    16:00 +23°C° 0 mm 1 mps 630 mmHg 45%
    17:00 +22°C° 0 mm 1 mps 630 mmHg 50%
    18:00 +20°C° 0 mm 1 mps 629 mmHg 56%
    19:00 +19°C° 0 mm 1 mps 629 mmHg 59%
    20:00 +18°C° 0 mm 1 mps 629 mmHg 62%
    21:00 +16°C° 0 mm 1 mps 630 mmHg 66%
    22:00 +15°C° 0 mm 1 mps 629 mmHg 67%
    23:00 +15°C° 0 mm 1 mps 629 mmHg 68%

    21 October, Saturday

    Time Temperature Precipitation Wind Pressure Humidity
    00:00 +14°C° 0 mm 1 mps 629 mmHg 70%
    01:00 +14°C° 0 mm 2 mps 628 mmHg 68%
    02:00 +14°C° 0 mm 2 mps 628 mmHg 66%
    03:00 +14°C° 0 mm 2 mps 627 mmHg 65%
    04:00 +15°C° 0 mm 2 mps 628 mmHg 63%
    05:00 +15°C° 0 mm 2 mps 628 mmHg 61%
    06:00 +15°C° 0 mm 2 mps 628 mmHg 60%
    07:00 +17°C° 0 mm 3 mps 629 mmHg 54%
    08:00 +20°C° 0 mm 4 mps 630 mmHg 49%
    09:00 +22°C° 0 mm 4 mps 631 mmHg 43%
    10:00 +25°C° 0 mm 5 mps 631 mmHg 40%
    11:00 +26°C° 0 mm 5 mps 631 mmHg 36%
    12:00 +28°C° 0 mm 5 mps 631 mmHg 33%
    13:00 +28°C° 0 mm 5 mps 631 mmHg 31%
    14:00 +28°C° 0 mm 5 mps 631 mmHg 30%
    15:00 +29°C° 0 mm 4 mps 630 mmHg 29%
    16:00 +27°C° 0 mm 3 mps 630 mmHg 34%
    17:00 +25°C° 0 mm 3 mps 630 mmHg 39%
    18:00 +23°C° 0 mm 2 mps 629 mmHg 44%
    19:00 +20°C° 0 mm 2 mps 629 mmHg 48%
    20:00 +20°C° 0 mm 1 mps 630 mmHg 52%
    21:00 +19°C° 0 mm 1 mps 630 mmHg 56%
    22:00 +19°C° 0 mm 1 mps 629 mmHg 59%
    23:00 +18°C° 0 mm 1 mps 629 mmHg 62%

    22 October, Sunday

    Time Temperature Precipitation Wind Pressure Humidity
    00:00 +16°C° 0 mm 1 mps 629 mmHg 65%
    01:00 +16°C° 0.1 mm 1 mps 628 mmHg 67%
    02:00 +16°C° 0.1 mm 1 mps 628 mmHg 68%
    03:00 +16°C° 0.1 mm 1 mps 627 mmHg 70%
    04:00 +16°C° 0.1 mm 1 mps 628 mmHg 71%
    05:00 +15°C° 0.1 mm 1 mps 628 mmHg 73%
    06:00 +15°C° 0.1 mm 1 mps 628 mmHg 74%
    07:00 +18°C° 0 mm 1 mps 629 mmHg 66%
    08:00 +20°C° 0 mm 2 mps 630 mmHg 59%
    09:00 +23°C° 0 mm 2 mps 631 mmHg 51%
    10:00 +24°C° 0.1 mm 3 mps 631 mmHg 48%
    11:00 +25°C° 0.1 mm 3 mps 631 mmHg 46%
    12:00 +26°C° 0.1 mm 3 mps 631 mmHg 43%
    13:00 +26°C° 0.1 mm 3 mps 630 mmHg 44%
    14:00 +25°C° 0.1 mm 3 mps 630 mmHg 44%
    15:00 +25°C° 0.1 mm 3 mps 629 mmHg 45%
    16:00 +22°C° 0.1 mm 3 mps 629 mmHg 54%
    17:00 +20°C° 0.1 mm 2 mps 629 mmHg 62%
    18:00 +19°C° 0.1 mm 1 mps 628 mmHg 71%
    19:00 +18°C° 0.4 mm 1 mps 628 mmHg 75%
    20:00 +16°C° 0.4 mm 1 mps 628 mmHg 78%
    21:00 +15°C° 0.4 mm 0 mps 628 mmHg 82%
    22:00 +14°C° 0.4 mm 0 mps 628 mmHg 84%
    23:00 +14°C° 0.4 mm 0 mps 628 mmHg 85%

    23 October, Monday

    Time Temperature Precipitation Wind Pressure Humidity
    00:00 +13°C° 0.4 mm 0 mps 627 mmHg 87%
    01:00 +13°C° 0.3 mm 0 mps 627 mmHg 88%
    02:00 +13°C° 0.3 mm 0 mps 627 mmHg 88%
    03:00 +13°C° 0.3 mm 0 mps 627 mmHg 89%
    04:00 +13°C° 0.2 mm 0 mps 628 mmHg 89%
    05:00 +14°C° 0.2 mm 0 mps 628 mmHg 88%
    06:00 +14°C° 0.2 mm 0 mps 628 mmHg 88%
    07:00 +16°C° 0.4 mm 1 mps 629 mmHg 84%
    08:00 +18°C° 0.4 mm 1 mps 630 mmHg 80%
    09:00 +19°C° 0.4 mm 1 mps 631 mmHg 76%
    10:00 +19°C° 1 mm 1 mps 631 mmHg 76%
    11:00 +20°C° 1 mm 1 mps 631 mmHg 75%
    12:00 +20°C° 1 mm 1 mps 631 mmHg 74%
    13:00 +20°C° 1.3 mm 1 mps 630 mmHg 76%
    14:00 +19°C° 1.3 mm 1 mps 630 mmHg 78%
    15:00 +19°C° 1.3 mm 1 mps 629 mmHg 80%
    16:00 +18°C° 0.3 mm 1 mps 629 mmHg 83%
    17:00 +16°C° 0.3 mm 1 mps 629 mmHg 86%
    18:00 +16°C° 0.3 mm 1 mps 629 mmHg 88%
    19:00 +15°C° 0.1 mm 1 mps 629 mmHg 90%
    20:00 +14°C° 0.1 mm 1 mps 629 mmHg 91%
    21:00 +14°C° 0.1 mm 1 mps 629 mmHg 93%
    22:00 +14°C° 0.4 mm 1 mps 629 mmHg 93%
    23:00 +14°C° 0.4 mm 1 mps 629 mmHg 94%
    Show more